Location: Newark
(41.6500°N, 71.4833°W)
Time: 05:33:53
(UTC+00:00)

Transit 2A Rocket - Pass Details

Date: 04 February 2020
Orbit: 591 x 911 km, 66.7° (Epoch: 20 February)

Event Time Altitude Azimuth Distance (km) Brightness Sun altitude
Rises 07:07:22 0° 197° (SSW) 2,832 - -52.7°
Reaches altitude 10° 07:09:38 10° 193° (SSW) 1,920 - -52.4°
Maximum altitude 07:13:49 55° 116° (ESE) 716 - -51.7°
Drops below altitude 10° 07:18:03 10° 39° (NE) 1,950 - -51.0°
Sets 07:20:22 0° 35° (NE) 2,881 - -50.7°
